GEOSCAN 5 (RS92S5)

Last updated on Fri Dec 19 2025 00:03:12 GMT+0000 (Coordinated Universal Time)

1 64891U 25155R 25352.61942373 .00011259 00000+0 42464-3 0 9998 2 64891 97.4340 316.5159 0009201 98.8652 261.3629 15.27177988 53201
UTC large
Height (km)
Speed (km/s)
/
Latitude / Longitude
Inclination (degrees)
Orbital Period (minutes)
Azimuth
Elevation
Range (km)
Doppler Factor

Next 0 passes for location: London (51.5072 / 0.1276)

Sorry there are no passes over London.